Location: La Silve
(44.2414°N, 5.8889°E)
Time: 04:33:14
(UTC+00:00)

Cosmos 1603 - Pass Details

Date: 01 December 2020
Orbit: 831 x 859 km, 71.0° (Epoch: 24 January)

Event Time Altitude Azimuth Distance (km) Brightness Sun altitude
Rises 17:44:29 0° 202° (SSW) 3,375 7.3 -18.4°
Reaches altitude 10° 17:46:55 10° 202° (SSW) 2,441 6.5 -18.8°
Maximum altitude 17:52:31 86° 113° (ESE) 841 3.6 -19.8°
Enters shadow 17:56:08 23° 27° (NNE) 1,706 4.9 -20.4°
